Location: Helsinki
(60.1699°N, 24.9384°E)
Time: 19:57:56
(UTC+02:00)

Transit 2A Rocket - Pass Details

Date: 30 September 2023
Orbit: 593 x 903 km, 66.7° (Epoch: 28 November)

Event Time Altitude Azimuth Distance (km) Brightness Sun altitude
Rises 13:35:09 0° 164° (SSE) 3,290 9.3 26.9°
Reaches altitude 10° 13:38:45 10° 141° (SE) 2,294 8.2 26.8°
Maximum altitude 13:41:24 14° 110° (ESE) 1,972 7.4 26.7°
Drops below altitude 10° 13:43:57 10° 79° (E) 2,195 7.3 26.7°
Sets 13:47:14 0° 55° (NE) 3,050 7.7 26.6°
